[[{"header":{"parameterUnit":"m.s-1","parameterCategory":1,"la1":30.2991,"la2":30.254,"lo1":-89.0895,"lo2":-89.0444,"dy":0.0017,"dx":0.0017,"nx":28,"ny":28,"refTime":"2025-12-17T09:00:00:Z","depth":0,"parameterNumber":2,"parameterNumberName":"U-component_of_WINDS"},"data":[0,0,0,0,0,0,0,0,0,0,0,0,0,0,0,0,0,0,0,0,0,0,0,0,0,0,0,0,0,0,0,0,0,0,0,0,0,0,0,0,0,0,0,0,0,0,0,0,0,0,0,0,0,0,0,0,0,0,-3.7161,-3.7161,0,-3.7225,-3.7226,-3.7227,-3.7105,-3.7101,-3.7097,-3.7093,-3.7161,-3.7166,-3.7172,0,0,0,0,0,0,0,0,0,0,0,0,0,-3.6933,-3.6938,-3.7161,-3.7161,-3.7162,-3.7225,-3.7226,-3.7227,-3.7106,-3.7101,-3.7096,-3.7091,-3.7159,-3.7166,-3.7172,0,0,0,0,0,0,0,0,0,0,0,0,0,-3.7018,-3.6939,-3.716,-3.7109,-3.7105,-3.7225,-3.7226,-3.7227,-3.7107,-3.7101,-3.7095,-3.7089,-3.7157,-3.7165,-3.7173,-3.7346,0,0,-3.7199,-3.7202,0,0,0,0,0,0,0,0,-3.7013,-3.7027,-3.7116,-3.7113,-3.7109,-3.7151,-3.717,-3.7267,-3.7108,-3.7106,-3.7093,-3.7086,-3.7163,-3.717,-3.7195,-3.7349,-3.7352,-3.7199,-3.7205,-3.7208,-3.721,0,0,0,0,0,0,0,-3.7008,-3.7023,-3.7186,-3.7117,-3.7113,-3.7083,-3.7089,-3.7188,-3.7168,-3.7106,-3.7097,-3.7107,-3.7159,-3.7188,-3.7196,-3.7353,-3.7199,-3.7207,-3.7212,-3.7215,-3.7652,-3.7659,0,0,0,0,0,0,-3.7008,-3.7019,-3.7184,-3.7188,-3.7045,-3.7092,-3.7098,-3.7144,-3.7166,-3.7164,-3.7112,-3.7101,-3.7176,-3.7187,-3.7198,-3.7403,-3.7208,-3.7216,-3.7221,-3.7646,-3.7654,-3.7661,0,0,0,0,0,0,-3.7004,-3.7024,-3.7181,-3.7101,-3.7119,-3.7103,-3.7154,-3.7148,-3.7176,-3.717,-3.7166,-3.7145,-3.7172,-3.7186,-3.731,-3.7404,-3.722,-3.7227,-3.7638,-3.7648,-3.7657,-3.7814,0,0,0,0,0,0,-3.6998,-3.7023,-3.7089,-3.7104,-3.7124,-3.7293,-3.716,-3.7154,-3.7191,-3.7177,-3.72,-3.7198,-3.7168,-3.7298,-3.7319,-3.7412,-3.7234,-3.763,-3.7642,-3.7654,-3.78,-3.7828,-3.7851,0,0,0,0,0,-3.699,-3.713,-3.7093,-3.7113,-3.7205,-3.7298,-3.731,-3.7273,-3.7199,-3.7265,-3.7261,-3.7197,-3.739,-3.7312,-3.7334,-3.7431,-3.7624,-3.7639,-3.7653,-3.7789,-3.7822,-3.7851,0,0,0,0,0,0,-3.7127,-3.7131,-3.709,-3.7239,-3.7269,-3.7278,-3.736,-3.7309,-3.7362,-3.7347,-3.7298,-3.7304,-3.7438,-3.7446,-3.736,-3.7599,-3.7494,-3.7514,-3.759,-3.7622,-3.7647,-3.7643,-3.7241,0,0,0,0,0,-3.7175,-3.725,-3.7249,-3.7381,-3.7398,-3.7377,-3.7416,-3.7384,-3.7414,-3.7426,-3.7431,-3.7463,-3.753,-3.7576,-3.7638,-3.78,-3.7804,-3.7877,-3.7903,-3.7924,-3.7942,-3.803,-3.8063,-3.771,-3.771,-3.7709,0,0,-3.7274,-3.7285,-3.7336,-3.7409,-3.7429,-3.7508,-3.7388,-3.7477,-3.7536,-3.744,-3.7558,-3.7563,-3.7594,-3.7739,-3.7802,-3.775,-3.804,-3.7943,-3.796,-3.7967,-3.8048,-3.8082,-3.8112,-3.772,-3.7718,-3.7716,0,0,-3.7496,-3.7511,-3.7624,-3.7646,-3.7677,-3.7661,-3.7688,-3.7705,-3.7704,-3.7821,-3.7751,-3.782,-3.7937,-3.7963,-3.7991,-3.8222,-3.8166,-3.8243,-3.8378,-3.8464,-3.8492,-3.8516,-3.86,-3.8631,-3.8261,-3.8262,-3.8262,0,-3.7616,-3.7732,-3.7688,-3.7782,-3.7816,-3.7732,-3.7845,-3.7869,-3.7919,-3.7945,-3.7885,-3.803,-3.8045,-3.8195,-3.8251,-3.8276,-3.8307,-3.8242,-3.8491,-3.8515,-3.8537,-3.8617,-3.8648,-3.8271,-3.827,-3.8269,-3.8268,0,-3.7879,-3.7961,-3.8047,-3.8098,-3.8142,-3.8245,-3.8216,-3.8266,-3.823,-3.8221,-3.8342,-3.8357,-3.8421,-3.8453,-3.8419,-3.8599,-3.8565,-3.8499,-3.8392,-3.8581,-3.8655,-3.8685,-3.8284,-3.8281,-3.8278,-3.8276,0,0,-3.8191,-3.8215,-3.8248,-3.827,-3.8297,-3.836,-3.8459,-3.8521,-3.8566,-3.8602,-3.8685,-3.8786,-3.8724,-3.8757,-3.8725,-3.88,-3.8984,-3.8724,-3.8724,-3.8774,-3.9184,-3.9235,-3.9271,-3.8945,-3.8951,-3.8955,-3.9181,0,-3.8413,-3.8584,-3.8547,-3.8715,-3.8791,-3.8711,-3.8798,-3.8825,-3.8819,-3.8882,-3.8875,-3.8948,-3.886,-3.888,-3.895,-3.8947,-3.9066,-3.8929,-3.9024,-3.9028,-3.9021,-3.9309,-3.9364,-3.9577,-3.921,-3.9215,-3.9218,0,-3.8695,-3.8743,-3.8919,-3.8935,-3.8965,-3.9044,-3.9098,-3.9159,-3.9187,-3.9178,-3.9214,-3.9167,-3.9266,-3.9157,-3.9293,-3.9201,-3.9237,-3.9241,-3.9248,-3.9257,-3.9136,-3.9328,-3.9643,-3.9676,-3.9263,-3.9259,-3.9256,0,-3.8908,-3.9015,-3.9135,-3.9156,-3.9177,-3.9235,-3.9246,-3.9268,-3.9308,-3.9355,-3.938,-3.9438,-3.947,-3.9516,-3.9486,-3.9409,-3.9628,-3.9516,-3.9624,-3.9625,-3.9675,-3.9673,-4.0003,-3.9695,-3.9695,-3.9694,-3.9693,0,-3.916,-3.9272,-3.9231,-3.9305,-3.9428,-3.9383,-3.9506,-3.9508,-3.9528,-3.9602,-3.9535,-3.9606,-3.9561,-3.9627,-3.9604,-3.9721,-3.9736,-3.9731,-3.9725,-3.9739,-3.974,-3.9764,-3.9749,-3.9703,-3.9701,-3.9699,-3.9698,0,-3.942,-3.9397,-3.9522,-3.9532,-3.9536,-3.9627,-3.9635,-3.9704,-3.9692,-3.9785,-3.9805,-3.9787,-3.9862,-3.9836,-3.9916,-3.99,-4.005,-4.0023,-4.0041,-4.0035,-4.0145,-4.0136,-4.0503,-4.055,-4.0211,-4.0214,-4.0217,0,-3.9584,-3.9668,-3.9686,-3.973,-3.9747,-3.9819,-3.9858,-3.9817,-3.9861,-3.99,-3.9965,-4.0034,-4.0087,-4.021,-4.0205,-4.0266,-4.0241,-4.0365,-4.025,-4.0262,-4.0245,-4.0241,-4.025,-4.0389,-4.0393,-4.0396,-4.0399,0,-3.9879,-3.9863,-3.9923,-3.998,-4.0029,-4.0071,-4.0108,-4.0148,-4.0108,-4.0162,-4.0237,-4.0279,-4.036,-4.043,-4.0485,-4.0496,-4.0443,-4.0435,-4.0464,-4.048,-4.0488,-4.0487,-4.0106,-4.0427,-4.0425,-4.0423,-4.0421,-4.042,-4.0097,-4.0168,-4.0192,-4.0261,-4.0284,-4.032,-4.0385,-4.0381,-4.0444,-4.0507,-4.0478,-4.0566,-4.0592,-4.066,-4.0679,-4.0748,-4.0699,-4.074,-4.0751,-4.0763,-4.0778,-4.0476,-4.0757,-4.0756,-4.0755,-4.0755,-4.0754,0,-4.0389,-4.0401,-4.0465,-4.0518,-4.0572,-4.0515,-4.0552,-4.0602,-4.068,-4.0708,-4.0762,-4.0849,-4.0916,-4.0916,-4.0978,-4.1033,-4.101,-4.1051,-4.1048,-4.1051,-4.0816,-4.0786,-4.1069,-4.1069,-4.1069,-4.1068,-4.1068,-4.1068,-4.0548,-4.0666,-4.0653,-4.0782,-4.0792,-4.0878,-4.0904,-4.0937,-4.0959,-4.106,-4.1115,-4.1113,-4.1131,-4.1193,-4.1253,-4.125,-4.1277,-4.1329,-4.1318,-4.1099,-4.1068,-4.1038,-4.101,-4.1334,-4.1335,-4.1547,-4.1549,-4.1551]},{"header":{"parameterUnit":"m.s-1","parameterCategory":1,"la1":30.2991,"la2":30.254,"lo1":-89.0895,"lo2":-89.0444,"dy":0.0017,"dx":0.0017,"nx":28,"ny":28,"refTime":"2025-12-17T09:00:00:Z","depth":0,"parameterNumber":3,"parameterNumberName":"V-component_of_WINDS"},"data":[0,0,0,0,0,0,0,0,0,0,0,0,0,0,0,0,0,0,0,0,0,0,0,0,0,0,0,0,0,0,0,0,0,0,0,0,0,0,0,0,0,0,0,0,0,0,0,0,0,0,0,0,0,0,0,0,0,0,-3.5543,-3.5543,0,-3.5548,-3.5548,-3.5548,-3.5501,-3.55,-3.5499,-3.5497,-3.5502,-3.5504,-3.5505,0,0,0,0,0,0,0,0,0,0,0,0,0,-3.5491,-3.5492,-3.5543,-3.5543,-3.5543,-3.5548,-3.5548,-3.5548,-3.5501,-3.55,-3.5498,-3.5497,-3.5502,-3.5503,-3.5505,0,0,0,0,0,0,0,0,0,0,0,0,0,-3.5507,-3.5493,-3.5543,-3.5521,-3.5519,-3.5548,-3.5548,-3.5548,-3.5502,-3.55,-3.5498,-3.5496,-3.5501,-3.5503,-3.5505,-3.5557,0,0,-3.5511,-3.5512,0,0,0,0,0,0,0,0,-3.5506,-3.5509,-3.5524,-3.5522,-3.552,-3.5522,-3.5532,-3.5551,-3.5502,-3.5508,-3.5497,-3.5495,-3.551,-3.5512,-3.5517,-3.5557,-3.5557,-3.5512,-3.5513,-3.5514,-3.5514,0,0,0,0,0,0,0,-3.5505,-3.5508,-3.5545,-3.5524,-3.5522,-3.5509,-3.551,-3.5535,-3.552,-3.5507,-3.5504,-3.5505,-3.5509,-3.5515,-3.5517,-3.5557,-3.5512,-3.5513,-3.5515,-3.5515,-3.5638,-3.564,0,0,0,0,0,0,-3.5507,-3.5508,-3.5545,-3.5545,-3.5508,-3.5512,-3.5512,-3.5523,-3.552,-3.5517,-3.5507,-3.5503,-3.5512,-3.5514,-3.5517,-3.5575,-3.5514,-3.5516,-3.5517,-3.5636,-3.5638,-3.5641,0,0,0,0,0,0,-3.5506,-3.5511,-3.5545,-3.5526,-3.5529,-3.5515,-3.5528,-3.5525,-3.553,-3.5519,-3.5516,-3.5516,-3.5511,-3.5514,-3.5547,-3.5575,-3.5516,-3.5518,-3.5634,-3.5637,-3.5639,-3.5694,0,0,0,0,0,0,-3.5505,-3.5511,-3.5531,-3.5526,-3.553,-3.5576,-3.553,-3.5526,-3.5534,-3.5529,-3.5527,-3.5525,-3.551,-3.5544,-3.5549,-3.5576,-3.552,-3.5631,-3.5635,-3.5639,-3.569,-3.5698,-3.5706,0,0,0,0,0,-3.5503,-3.5547,-3.5532,-3.5537,-3.5555,-3.5577,-3.5579,-3.5561,-3.5537,-3.5556,-3.5549,-3.5525,-3.5571,-3.5548,-3.5553,-3.5582,-3.5629,-3.5634,-3.5638,-3.5686,-3.5697,-3.5706,0,0,0,0,0,0,-3.5555,-3.5546,-3.553,-3.5573,-3.5576,-3.5569,-3.5593,-3.5574,-3.5584,-3.5579,-3.5556,-3.5556,-3.5592,-3.559,-3.5564,-3.563,-3.5596,-3.5601,-3.563,-3.564,-3.5648,-3.5648,-3.5522,0,0,0,0,0,-3.5572,-3.5591,-3.5581,-3.562,-3.5623,-3.5608,-3.5617,-3.5602,-3.5605,-3.5606,-3.5601,-3.5605,-3.5619,-3.563,-3.5643,-3.5689,-3.5687,-3.5711,-3.572,-3.5726,-3.5731,-3.5754,-3.5764,-3.5656,-3.5656,-3.5656,0,0,-3.5606,-3.5603,-3.5617,-3.5631,-3.5631,-3.5651,-3.5609,-3.5633,-3.5647,-3.561,-3.564,-3.5637,-3.5639,-3.5678,-3.5695,-3.5677,-3.5761,-3.5732,-3.5738,-3.5739,-3.5759,-3.577,-3.5779,-3.5659,-3.5658,-3.5658,0,0,-3.5678,-3.5678,-3.571,-3.5711,-3.5713,-3.5702,-3.571,-3.5706,-3.5702,-3.5732,-3.5704,-3.572,-3.5747,-3.5749,-3.5754,-3.5824,-3.5802,-3.583,-3.5873,-3.5895,-3.5903,-3.591,-3.5934,-3.5943,-3.5835,-3.5835,-3.5835,0,-3.572,-3.5749,-3.5729,-3.5753,-3.5759,-3.5726,-3.5757,-3.5759,-3.5766,-3.577,-3.5751,-3.5782,-3.5781,-3.582,-3.5837,-3.5842,-3.5849,-3.5829,-3.5904,-3.5911,-3.5917,-3.594,-3.5949,-3.5838,-3.5838,-3.5837,-3.5837,0,-3.58,-3.582,-3.5845,-3.5851,-3.586,-3.5888,-3.5871,-3.5883,-3.5867,-3.5858,-3.5888,-3.5886,-3.5897,-3.5906,-3.5891,-3.5941,-3.593,-3.5908,-3.5872,-3.5931,-3.5952,-3.596,-3.5843,-3.5841,-3.5841,-3.584,0,0,-3.5906,-3.5899,-3.5908,-3.5909,-3.5908,-3.5923,-3.5948,-3.5959,-3.5969,-3.5974,-3.5994,-3.6016,-3.5995,-3.6,-3.5985,-3.6005,-3.6059,-3.5979,-3.5979,-3.5993,-3.6112,-3.6129,-3.6139,-3.6044,-3.6046,-3.6047,-3.6112,0,-3.5975,-3.6018,-3.5999,-3.6044,-3.6061,-3.6029,-3.6051,-3.6052,-3.6045,-3.6058,-3.6049,-3.6065,-3.6036,-3.6039,-3.6057,-3.6048,-3.6082,-3.6044,-3.6062,-3.6063,-3.6061,-3.615,-3.6168,-3.6229,-3.612,-3.6121,-3.6122,0,-3.6062,-3.6069,-3.6115,-3.6108,-3.6115,-3.6135,-3.6142,-3.6156,-3.6156,-3.6149,-3.6154,-3.6134,-3.6158,-3.6123,-3.6154,-3.6129,-3.6135,-3.6132,-3.6134,-3.6134,-3.6095,-3.6152,-3.6248,-3.6257,-3.6135,-3.6134,-3.6133,0,-3.6132,-3.6154,-3.6184,-3.6186,-3.618,-3.6194,-3.6192,-3.619,-3.6197,-3.6203,-3.6207,-3.6217,-3.6222,-3.6229,-3.6212,-3.6189,-3.6245,-3.621,-3.6239,-3.624,-3.6252,-3.6252,-3.635,-3.6258,-3.6258,-3.6258,-3.6258,0,-3.6211,-3.624,-3.6215,-3.6233,-3.6264,-3.6242,-3.6274,-3.6268,-3.6266,-3.6282,-3.6256,-3.6271,-3.6248,-3.6261,-3.6248,-3.6275,-3.6278,-3.6273,-3.6269,-3.6274,-3.6275,-3.6278,-3.6272,-3.626,-3.626,-3.6259,-3.6259,0,-3.6295,-3.628,-3.631,-3.6301,-3.6299,-3.6322,-3.6314,-3.633,-3.632,-3.634,-3.6344,-3.6328,-3.6342,-3.6326,-3.6339,-3.633,-3.6366,-3.6357,-3.6366,-3.6363,-3.6393,-3.639,-3.6496,-3.6508,-3.641,-3.641,-3.6411,0,-3.6346,-3.6367,-3.636,-3.6368,-3.6368,-3.6382,-3.6388,-3.6367,-3.6375,-3.6375,-3.6391,-3.6403,-3.6411,-3.6434,-3.6424,-3.6433,-3.6423,-3.6459,-3.6424,-3.6429,-3.6422,-3.642,-3.6421,-3.6466,-3.6467,-3.6468,-3.6469,0,-3.6437,-3.6428,-3.6438,-3.6445,-3.6454,-3.6459,-3.6461,-3.647,-3.6447,-3.6457,-3.6471,-3.6477,-3.6489,-3.6501,-3.6507,-3.6504,-3.6483,-3.648,-3.6487,-3.6493,-3.6497,-3.6494,-3.6384,-3.6478,-3.6477,-3.6476,-3.6476,-3.6475,-3.6505,-3.6522,-3.6519,-3.653,-3.653,-3.6533,-3.6547,-3.6538,-3.6548,-3.6556,-3.6543,-3.6559,-3.6557,-3.6563,-3.6563,-3.6575,-3.6559,-3.657,-3.6573,-3.6575,-3.6579,-3.6496,-3.6576,-3.6576,-3.6576,-3.6576,-3.6575,0,-3.6594,-3.659,-3.6601,-3.6605,-3.6613,-3.6592,-3.6593,-3.6602,-3.6617,-3.6616,-3.6624,-3.6639,-3.6649,-3.6639,-3.6648,-3.6659,-3.665,-3.6662,-3.6661,-3.666,-3.6593,-3.6586,-3.667,-3.667,-3.667,-3.667,-3.667,-3.667,-3.6641,-3.6667,-3.6657,-3.6683,-3.6678,-3.6693,-3.6696,-3.6698,-3.6697,-3.6714,-3.6723,-3.6716,-3.6711,-3.6718,-3.6727,-3.6723,-3.6727,-3.6743,-3.6736,-3.6674,-3.6665,-3.6656,-3.6649,-3.6745,-3.6745,-3.6802,-3.6802,-3.6803]}]]